User: anonymous   Login
Location: Libas
(9.8833°N, 125.9833°E)
Time: 12:13:32
(UTC+00:00)
Language:

Cosmos 292 Rocket - Orbit

View from above orbital plane
View from above orbital plane
View from above satellite
View from above satellite

Ground track
Ground track

The orbit data is extracted from the following two-line orbital elements,

1 04071U 69070B   21022.74416605  .00000088  00000-0  23138-4 0  9991
2 04071  74.0494 121.6930 0013396 126.5183 233.7221 14.62883052730168
Epoch (UTC): 22 January 2021 17:51:35
Eccentricity: 0.0013396
inclination: 74.0494°
perigee height: 674 km
apogee height: 693 km
right ascension of ascending node: 121.6930°
argument of perigee: 126.5183°
revolutions per day: 14.62883052
mean anomaly at epoch: 233.7221°
orbit number at epoch: 73016

The dashed part of the orbit path shows where the satellite is in the earth's shadow,  

DLR